User: anonymous   Login
Location: Unspecified
(0.0000°N, 0.0000°E)
Time: 11:37:59
(UTC+00:00)
Language:

Alexis - Orbit

View from above orbital plane
View from above orbital plane
View from above satellite
View from above satellite

Ground track
Ground track

The orbit data is extracted from the following two-line orbital elements,

1 22638U 93026A   18261.09750935 0.00000100  00000-0  35182-4 0    04
2 22638  69.9196 265.4454 0054793  67.6001 292.3999 14.33981751    06
Epoch (UTC): 18 September 2018 02:20:24
Eccentricity: 0.0054793
inclination: 69.9196°
perigee height: 739 km
apogee height: 817 km
right ascension of ascending node: 265.4454°
argument of perigee: 67.6001°
revolutions per day: 14.33981751
mean anomaly at epoch: 292.3999°
orbit number at epoch: 0

The dashed part of the orbit path shows where the satellite is in the earth's shadow,  

DLR